www.pogodaiklimat.ru

Погода и климат >> Архив погоды >> Пакистан >> Sibi


ПОГОДА в Sibi

  • Прогноз погоды в Sibi
  • Монитор погоды в Sibi
  • Климат города

АРХИВ ПОГОДЫ в Sibi

Время (UTC), дата Ветер
(напр.,м/с)
 
Видим.   Явления Облачность Т
(С)
Тd
(С)
f
(%)
Тe
(С)
Тes
(С)
Комфортность P
(гПа)
Po
(гПа)
Тmin
(С)
Tmax
(С)
R
(мм)
R24
(мм)
S
(см)
12 12.12 штиль 0 10 км ясно +21.1 +12.2 57 +23 +23 комфорт 1014.8 999.2 +23.1
15 12.12 штиль 0 4000 м ясно +18.9 +9.6 55 +19 +19 1015.7 1000.0
18 12.12 штиль 0 4000 м ясно +15.0 +8.1 63 +15 +15 1019.4 1000.0
21 12.12 штиль 0 4000 м ясно +12.8 +8.0 73 +12 +12 1018.7 1000.0
00 13.12 штиль 0 4000 м ясно +11.1 +7.9 81 +11 +11 1018.2 1002.0
03 13.12 штиль 0 10 км ясно +14.4 +8.6 68 +14 +15 1019.6 1003.6 +9.1
06 13.12 штиль 0 10 км ясно +17.2 +9.4 60 +17 +26 1024.5 1000.0
09 13.12 штиль 0 10 км ясно +20.0 +10.9 56 +21 +30 комфорт 1021.2 1000.0
12 13.12 штиль 0 10 км ясно +22.2 +11.3 50 +24 +25 комфорт 1018.9 1003.4 +25.1
15 13.12 штиль 0 4000 м ясно +17.2 +9.4 60 +17 +17 1020.9 1000.0
18 13.12 штиль 0 4000 м ясно +13.9 +6.8 62 +14 +14 1022.2 1000.0
21 13.12 штиль 0 4000 м ясно +11.7 +7.4 75 +11 +11 1021.9 1002.1
00 14.12 штиль 0 4000 м ясно +10.0 +6.8 80 +9 +9 1021.2 1004.9
03 14.12 штиль 0 10 км ясно +12.8 +8.0 73 +12 +13 1022.9 1006.8 +8.1
06 14.12 штиль 0 10 км ясно +16.1 +8.1 59 +16 +25 1025.7 1000.0
09 14.12 штиль 0 10 км ясно +20.6 +9.3 48 +22 +30 комфорт 1023.3 1000.0
12 14.12 штиль 0 10 км ясно +20.6 +9.3 48 +22 +22 комфорт 1021.7 1006.0 +22.1
15 14.12 штиль 0 4000 м ясно +15.6 +9.8 68 +15 +15 1022.6 1000.0
18 14.12 штиль 0 4000 м ясно +13.3 +9.6 78 +13 +13 1024.3 1000.0
21 14.12 штиль 0 4000 м ясно +11.1 +7.9 81 +11 +11 1024.1 1000.0
00 15.12 штиль 0 4000 м ясно +9.4 +6.3 81 +9 +9 1023.4 1007.1
03 15.12 штиль 0 10 км ясно +13.3 +7.4 67 +13 +13 1024.1 1008.0 +8.1
06 15.12 штиль 0 10 км ясно +17.2 +8.2 55 +17 +26 1026.2 1000.0
09 15.12 штиль 0 10 км ясно +21.1 +11.1 53 +23 +32 комфорт 1023.3 1000.0
12 15.12 штиль 0 10 км ясно +22.8 +11.5 49 +25 +25 комфорт 1021.1 1005.6 +24.1
15 15.12 штиль 0 4000 м ясно +16.1 +11.4 74 +16 +16 1025.5 1000.0
18 15.12 штиль 0 4000 м ясно +12.8 +8.0 73 +12 +12 1024.2 1000.0
21 15.12 штиль 0 4000 м ясно +11.1 +6.8 75 +11 +11 1023.4 1000.0
00 16.12 штиль 0 4000 м ясно +9.4 +6.3 81 +9 +9 1022.9 1006.6
03 16.12 штиль 0 10 км ясно +14.4 +4.9 53 +14 +15 1023.8 1007.8 +8.1
06 16.12 штиль 0 10 км ясно +17.8 +7.1 49 +18 +27 1026.6 1000.0
09 16.12 штиль 0 10 км ясно +22.2 +9.0 43 +24 +32 комфорт 1023.2 1000.0
12 16.12 штиль 0 10 км ясно +23.3 +9.9 43 +25 +25 комфорт 1020.6 1005.1 +25.1
15 16.12 штиль 0 4000 м ясно +15.0 +10.3 73 +15 +15 1021.7 1000.0
18 16.12 штиль 0 4000 м ясно +12.2 +7.9 75 +12 +12 1022.3 1000.0
21 16.12 штиль 0 4000 м ясно +10.6 +7.4 81 +10 +10 1023.2 1000.0
00 17.12 штиль 0 4000 м ясно +8.9 +6.9 87 +8 +8 1022.6 1006.3
03 17.12 штиль 0 10 км ясно +12.8 +8.0 73 +12 +13 1023.9 1007.8 +7.1
06 17.12 штиль 0 10 км ясно +16.1 +9.3 64 +16 +25 1024.9 1000.0
09 17.12 штиль 0 10 км ясно +21.1 +12.2 57 +23 +32 комфорт 1020.3 1000.0
12 17.12 штиль 0 10 км ясно +22.8 +11.5 49 +25 +25 комфорт 1018.6 1003.1 +24.0
15 17.12 штиль 0 4000 м ясно +15.6 +7.5 59 +16 +16 1020.2 1000.0
18 17.12 штиль 0 4000 м ясно +11.7 +5.0 63 +11 +11 1022.1 1000.0
21 17.12 штиль 0 4000 м ясно +10.0 +5.7 75 +9 +9 1021.4 1000.0
00 18.12 штиль 0 4000 м ясно +8.3 +5.2 81 +8 +8 1021.1 1004.7
03 18.12 штиль 0 10 км ясно +11.7 +5.0 63 +11 +12 1023.3 1007.1 +7.5
06 18.12 штиль 0 10 км ясно +15.6 +7.5 59 +16 +24 1024.1 1000.0
09 18.12 штиль 0 10 км ясно +20.0 +9.8 52 +21 +30 комфорт 1018.7 1000.0
12 18.12 штиль 0 10 км ясно +23.3 +9.9 43 +25 +25 комфорт 1016.2 1000.7 +25.1
15 18.12 штиль 0 4000 м ясно +16.7 +7.6 55 +17 +17 1017.8 1000.0
18 18.12 штиль 0 4000 м ясно +11.1 +5.6 69 +11 +11 1019.3 1000.0
21 18.12 штиль 0 4000 м ясно +8.9 +5.7 80 +8 +8 1019.1 1000.0
00 19.12 штиль 0 4000 м ясно +7.2 +4.7 84 +6 +6 1018.6 1002.1
03 19.12 штиль 0 10 км ясно +10.6 +3.7 62 +10 +11 1020.1 1003.8 +6.1
06 19.12 штиль 0 10 км ясно +14.4 +4.9 53 +14 +23 1021.2 1000.0
09 19.12 штиль 0 10 км ясно +20.6 +8.1 45 +22 +30 комфорт 1016.7 1000.0

 

Местоположение метеостанции Sibi (Пакистан): широта 29.55 долгота 67.88 высота над уровнем моря 134 м.

В архиве по умолчанию представлена погода в Sibi за последнюю неделю. Архивные данные за месяц целиком и за предыдущие месяцы, начиная с января 2011 года, Вы можете получить, выбрав интересующий диапазон дат из раскрывающегося списка и нажав кнопку "Ввод!".


*Определитесь, кто Вы:
робот инопланетянин человек

Внимание! Время в таблицах - всемирное. Для получения местного времени необходимо прибавить поправку, которая в Sibi равна 5 ч.

Смотрите также архив погоды в соседних городах и на ближайших метеорологических станциях:

Погода в Quetta Airport (Пакистан) (124 км)
Погода в Kalat (Пакистан) (139 км)
Погода в Jacobabad (Пакистан) (150 км)
Погода в Barkhan (Пакистан) (181 км)
Погода в Khuzdar (Пакистан) (227 км)
Погода в Rohri (Пакистан) (232 км)
Погода в Zhob (Пакистан) (252 км)
Погода в Khanpur (Пакистан) (290 км)
Погода в Kandahar (Афганистан) (292 км)
Погода в Pad Idan (Пакистан) (301 км)

Пояснения к столбцам:

Ветер - указаны скорость ветра в м/с - средняя за 10 мин, порывы в срок и между сроками (в фигурных скобках) и направление, откуда дует ветер: С - северный, СВ - северо-восточный, В - восточный, ЮВ - юго-восточный, Ю - южный, ЮЗ - юго-западный, З - западный, СЗ - северо-западный.
Видимость - горизонтальная дальность видимости в метрах или километрах. При видимости от 1 до 10 км при отсутствии осадков обычно наблюдается дымка, при ухудшении видимости до 1 км и менее - туман. В сухую погоду видимость может ухудшаться дымом, пылью или мглою.
Явления - указаны атмосферные явления, наблюдавшиеся в срок или в последний час перед сроком; фигурными скобками обозначены явления, наблюдавшиеся между сроками (за 1-3 часа до срока); квадратными скобками обозначены град или гололедные отложения с указанием их диаметра в мм.
Облачность - указаны через наклонную черту общая и нижняя облачность в баллах и высота нижней границы облаков в метрах; квадратными скобками обозначены формы облаков: Ci - перистые, Cs - перисто-слоистые, Cc - перисто-кучевые, Ac - высококучевые, As - высокослоистые, Sc - слоисто-кучевые, Ns - слоисто-дождевые, Cu - кучевые, Cb - кучево-дождевые. Подробнее классификацию облаков см. в Атласе облаков (PDF).
T - Температура воздуха - температура, измеренная на высоте 2 м над землей.
Td - Температура точки росы - температура, при понижении до которой содержащийся в воздухе водяной пар достигнет насыщения.
f - Относительная влажность воздуха - влажноcть воздуха, измеренная на высоте 2 м над землей.
Te - Эффективная температура - температура, которую ощущает одетый по сезону человек в тени. Характеристика душности погоды. При расчете учитывается влияние влажности воздуха и скорости ветра на теплоощущения человека.
Tes - Эффективная температура на солнце - температура, которую ощущает человек, с поправкой на солнечный нагрев. Характеристика знойности погоды. Зависит от высоты солнца над горизонтом, облачности и скорости ветра. Ночью, в пасмурную погоду, а также при ветре 12 м/с и более поправка равна нулю.
P - Атмосферное давление - приведенное к уровню моря атмосферное давление.
Po - Атмосферное давление - измеренное на уровне метеостанции атмосферное давление.
Tmin - Минимальная температура - минимум температуры воздуха на высоте 2 м над землей.
Tmax - Максимальная температура - максимум температуры воздуха на высоте 2 м над землей.
R - Количество осадков - Количество выпавших осадков за период времени, мм. При наведении курсора мыши на число - период времени, за который выпало указанное количество осадков.
R24 - Количество осадков - Количество выпавших осадков за 24 часа, мм.
S - Снежный покров - Высота снежного покрова, см. При наведении курсора мыши на число - состояние снежного покрова и степень покрытия местности в баллах.